This is the latest recevied weather packets stored in our database for station/object W6SNO-1. If no packets are shown the sender has not sent any weather packets the latest 10 day(s).
| Time | Temp. | Humidity | Pressure | Rain* | Wind** | Luminosity | Snow |
|---|---|---|---|---|---|---|---|
| 1787784018 | 32.22° C | 24% | 1014.2 hPa | 0 mm | - | 547 W/m² | - |
| 1787783714 | 31.67° C | 25% | 1014.1 hPa | 0 mm | - | 563 W/m² | - |
| 1787783413 | 31.67° C | 25% | 1014 hPa | 0 mm | - | 583 W/m² | - |
| 1787783110 | 31.67° C | 24% | 1014.3 hPa | 0 mm | - | 591 W/m² | - |
| 1787782809 | 31.67° C | 24% | 1014.4 hPa | 0 mm | - | 594 W/m² | - |
| 1787782504 | 32.22° C | 25% | 1014.3 hPa | 0 mm | - | 606 W/m² | - |
| 1787782198 | 31.67° C | 25% | 1014.5 hPa | 0 mm | - | 619 W/m² | - |
| 1787781894 | 32.22° C | 25% | 1014.4 hPa | 0 mm | - | 630 W/m² | - |
| 1787781593 | 32.78° C | 23% | 1014.2 hPa | 0 mm | - | 638 W/m² | - |
| 1787781292 | 32.22° C | 24% | 1014.5 hPa | 0 mm | - | 648 W/m² | - |
| 1787780989 | 31.67° C | 25% | 1014.5 hPa | 0 mm | - | 674 W/m² | - |
| 1787780685 | 31.67° C | 25% | 1014.4 hPa | 0 mm | - | 674 W/m² | - |
| 1787780379 | 31.67° C | 25% | 1014.6 hPa | 0 mm | - | 677 W/m² | - |
| 1787780076 | 31.67° C | 24% | 1014.7 hPa | 0 mm | - | 683 W/m² | - |
| 1787779770 | 31.67° C | 24% | 1014.6 hPa | 0 mm | - | 690 W/m² | - |
| 1787779470 | 31.67° C | 23% | 1014.6 hPa | 0 mm | - | 697 W/m² | - |
| 1787779170 | 31.67° C | 24% | 1014.8 hPa | 0 mm | - | 703 W/m² | - |
| 1787778865 | 31.67° C | 25% | 1014.8 hPa | 0 mm | - | 709 W/m² | - |
| 1787778561 | 31.11° C | 26% | 1014.7 hPa | 0 mm | - | 716 W/m² | - |
| 1787778257 | 31.67° C | 26% | 1015 hPa | 0 mm | - | 718 W/m² | - |
| 1787777956 | 30.56° C | 27% | 1015 hPa | 0 mm | - | 725 W/m² | - |
| 1787777652 | 30.56° C | 29% | 1015 hPa | 0 mm | - | 729 W/m² | - |
| 1787777348 | 30.56° C | 30% | 1015 hPa | 0 mm | - | 732 W/m² | - |
| 1787777047 | 31.11° C | 28% | 1015.3 hPa | 0 mm | - | 735 W/m² | - |
| 1787776746 | 30.56° C | 29% | 1015.3 hPa | 0 mm | - | 740 W/m² | - |
* Rain latest hour (hover to see other rain measurements)
** Current wind speed in m/s (hover to see current wind gust speed)